Total_Precipitation_Accumulation
0.93 0.92 1.00 1.10 1.15 1.17 1.31 1.25 1.11 1.05 1.00 0.95 0.91 0.91 0.94 0.92 0.98 1.13 1.27 1.41 1.52 1.52 1.49 1.53 1.53 1.64 1.67 1.54 1.54 1.59 1.68 1.78 1.58 1.24 1.27 1.38 1.28 1.06 0.89 0.79 0.70 0.73 0.73
0.90 0.95 1.01 1.06 1.09 1.07 1.11 1.17 1.19 1.09 1.02 1.00 1.00 0.97 0.89 0.86 0.94 1.08 1.22 1.38 1.50 1.58 1.62 1.66 1.54 1.57 1.67 1.62 1.60 1.59 1.61 1.77 1.69 1.54 1.46 1.53 1.53 1.35 1.16 0.94 0.71 0.62 0.67
1.03 1.01 0.96 0.99 0.94 0.92 0.95 1.00 1.09 1.14 1.17 1.14 1.11 1.07 1.04 1.10 1.21 1.27 1.30 1.40 1.54 1.60 1.64 1.61 1.57 1.63 1.54 1.58 1.63 1.61 1.60 1.60 1.68 1.64 1.57 1.67 1.66 1.47 1.27 1.06 0.84 0.81 0.72
0.89 0.89 0.89 0.88 0.88 0.94 0.99 1.01 1.05 1.08 1.17 1.20 1.15 1.20 1.24 1.28 1.31 1.32 1.31 1.35 1.38 1.40 1.43 1.40 1.39 1.42 1.44 1.52 1.50 1.49 1.54 1.59 1.65 1.61 1.64 1.75 1.77 1.75 1.56 1.30 1.09 0.98 0.87
0.91 0.85 0.80 0.82 0.87 0.90 0.92 0.95 0.99 1.04 1.07 1.23 1.27 1.36 1.44 1.41 1.30 1.31 1.31 1.21 1.29 1.29 1.27 1.27 1.29 1.35 1.37 1.40 1.31 1.34 1.45 1.52 1.57 1.65 1.73 1.89 1.91 1.98 1.81 1.52 1.34 1.19 1.01
0.83 0.89 0.92 0.90 0.85 0.90 0.93 0.94 0.98 1.07 1.18 1.28 1.33 1.42 1.44 1.33 1.36 1.36 1.34 1.29 1.36 1.35 1.31 1.26 1.16 1.16 1.14 1.15 1.17 1.20 1.30 1.38 1.48 1.61 1.68 1.78 1.86 1.85 1.79 1.65 1.51 1.31 1.07
0.89 0.91 1.01 1.09 1.00 1.07 1.10 1.08 1.10 1.16 1.27 1.34 1.45 1.50 1.50 1.53 1.44 1.31 1.31 1.27 1.33 1.38 1.40 1.39 1.14 0.99 1.07 1.07 1.16 1.12 1.07 1.12 1.21 1.36 1.45 1.56 1.75 1.82 1.87 1.76 1.73 1.60 1.35
0.94 0.98 1.13 1.28 1.20 1.23 1.25 1.26 1.32 1.40 1.44 1.54 1.58 1.52 1.52 1.54 1.45 1.21 1.14 1.07 1.15 1.26 1.33 1.37 1.34 1.26 1.23 1.25 1.29 1.26 1.16 1.12 1.18 1.22 1.28 1.45 1.77 2.00 2.02 1.97 1.97 1.85 1.57
1.01 1.13 1.30 1.46 1.53 1.52 1.49 1.57 1.63 1.66 1.71 1.79 1.85 1.82 1.72 1.68 1.48 1.17 1.04 0.98 1.08 1.14 1.17 1.18 1.17 1.08 1.07 0.99 1.03 1.10 1.13 1.09 1.05 1.10 1.14 1.26 1.48 1.81 1.98 2.00 2.05 1.89 1.64
1.15 1.18 1.27 1.45 1.56 1.60 1.61 1.77 1.92 1.96 1.96 2.00 1.89 1.76 1.67 1.65 1.56 1.26 1.10 1.05 1.16 1.21 1.27 1.25 1.21 1.13 1.05 0.90 0.90 0.99 1.01 1.00 1.03 1.03 1.01 1.00 1.10 1.38 1.67 1.67 1.69 1.76 1.53
1.09 1.13 1.21 1.44 1.72 1.76 1.82 1.90 2.01 2.08 2.13 2.15 2.04 1.92 1.82 1.77 1.71 1.37 1.20 1.16 1.24 1.29 1.24 1.24 1.20 1.13 0.93 0.80 0.76 0.82 0.84 0.87 0.99 1.06 1.08 1.09 1.14 1.22 1.35 1.43 1.50 1.55 1.49
1.09 1.17 1.30 1.55 1.66 1.75 1.90 1.96 2.11 2.22 2.23 2.21 2.21 2.08 1.99 1.90 1.65 1.36 1.16 1.16 1.27 1.37 1.36 1.33 1.28 1.13 0.90 0.77 0.67 0.64 0.66 0.68 0.77 0.90 0.97 1.00 1.03 1.07 1.17 1.33 1.50 1.56 1.53
1.10 1.15 1.25 1.39 1.50 1.63 1.70 1.69 1.78 1.91 1.93 1.97 2.01 1.97 1.96 2.01 1.83 1.42 1.16 1.11 1.20 1.31 1.44 1.50 1.32 1.14 1.01 0.87 0.80 0.72 0.65 0.63 0.72 0.81 0.87 0.87 0.91 0.99 1.15 1.36 1.56 1.74 1.68
1.06 1.03 1.12 1.30 1.38 1.45 1.56 1.58 1.68 1.76 1.82 1.89 1.92 1.87 1.88 1.99 1.95 1.61 1.32 1.16 1.10 1.11 1.17 1.21 1.14 1.08 0.98 0.87 0.79 0.70 0.62 0.65 0.72 0.74 0.81 0.89 0.99 1.15 1.22 1.23 1.32 1.51 1.66
1.08 1.04 1.11 1.22 1.32 1.40 1.52 1.61 1.64 1.66 1.65 1.68 1.72 1.69 1.70 1.81 1.79 1.55 1.33 1.19 1.09 1.09 1.12 1.18 1.17 1.17 1.07 0.98 0.90 0.84 0.82 0.84 0.81 0.81 0.88 0.96 1.01 1.09 1.17 1.22 1.28 1.31 1.34
1.16 1.09 1.08 1.09 1.17 1.25 1.34 1.34 1.27 1.25 1.24 1.23 1.27 1.20 1.19 1.35 1.36 1.12 0.99 1.02 1.03 1.00 1.02 1.10 1.17 1.21 1.16 1.09 1.04 0.98 0.98 0.96 0.92 0.93 0.97 1.02 1.05 1.07 1.12 1.25 1.36 1.35 1.24
1.35 1.20 1.07 1.01 1.03 1.09 1.20 1.28 1.30 1.19 1.11 1.05 1.03 0.93 0.87 1.07 1.16 1.01 0.89 0.84 0.81 0.83 0.89 0.98 1.02 1.10 1.13 1.04 0.95 0.89 0.89 0.90 0.95 0.99 0.99 1.02 1.07 1.11 1.16 1.25 1.35 1.42 1.33
1.29 1.18 1.03 0.98 0.97 0.97 1.03 1.12 1.19 1.26 1.24 1.08 0.93 0.83 0.75 0.87 0.98 0.93 0.82 0.73 0.71 0.73 0.78 0.87 0.94 0.98 1.04 1.00 0.92 0.91 0.95 1.00 1.00 1.00 1.02 1.04 1.09 1.14 1.19 1.23 1.27 1.33 1.33
1.18 1.09 0.99 0.96 0.97 0.89 0.84 0.90 0.98 1.06 1.17 1.13 0.96 0.87 0.79 0.83 0.90 0.86 0.75 0.65 0.68 0.68 0.69 0.75 0.82 0.88 0.91 0.90 0.90 0.93 0.95 0.99 0.94 0.95 1.01 1.06 1.04 1.09 1.09 1.13 1.21 1.29 1.32
0.95 0.85 0.82 0.85 0.84 0.82 0.80 0.84 0.93 1.03 1.11 1.09 0.97 0.85 0.74 0.76 0.84 0.83 0.73 0.68 0.67 0.63 0.62 0.67 0.74 0.79 0.84 0.87 0.94 0.98 0.96 1.00 1.02 0.97 1.01 1.08 1.02 1.02 1.02 1.03 1.14 1.19 1.20
0.78 0.65 0.55 0.60 0.70 0.76 0.81 0.88 1.00 1.07 1.09 1.01 0.86 0.71 0.61 0.58 0.68 0.70 0.72 0.73 0.70 0.69 0.68 0.67 0.70 0.76 0.78 0.85 0.94 0.99 1.01 1.03 1.06 1.00 0.99 1.07 1.05 1.06 1.09 1.06 1.08 1.18 1.20
0.75 0.61 0.50 0.51 0.58 0.63 0.74 0.87 0.95 0.95 0.90 0.84 0.76 0.66 0.61 0.58 0.63 0.66 0.71 0.71 0.68 0.66 0.63 0.64 0.67 0.73 0.78 0.82 0.87 0.94 0.96 0.96 1.00 1.03 1.03 1.06 1.09 1.07 1.09 1.08 1.07 1.17 1.26
0.70 0.53 0.42 0.40 0.43 0.47 0.59 0.76 0.83 0.77 0.70 0.68 0.68 0.66 0.66 0.66 0.65 0.67 0.69 0.67 0.65 0.62 0.58 0.62 0.66 0.70 0.76 0.77 0.77 0.83 0.88 0.89 0.88 0.94 1.04 1.06 1.09 1.11 1.12 1.14 1.14 1.17 1.25
0.57 0.44 0.32 0.28 0.32 0.40 0.56 0.73 0.74 0.66 0.62 0.65 0.65 0.67 0.67 0.66 0.65 0.65 0.67 0.68 0.67 0.66 0.63 0.64 0.64 0.62 0.66 0.72 0.71 0.68 0.69 0.67 0.68 0.76 0.88 0.98 1.03 1.11 1.12 1.12 1.16 1.13 1.22
0.50 0.41 0.32 0.26 0.30 0.43 0.61 0.72 0.65 0.59 0.58 0.59 0.57 0.61 0.65 0.68 0.68 0.69 0.68 0.70 0.70 0.72 0.69 0.65 0.64 0.61 0.56 0.57 0.60 0.57 0.55 0.47 0.48 0.57 0.69 0.82 0.88 0.98 1.04 1.04 1.12 1.15 1.17
0.46 0.42 0.36 0.32 0.37 0.49 0.62 0.66 0.61 0.57 0.60 0.57 0.56 0.59 0.64 0.68 0.67 0.65 0.66 0.67 0.66 0.64 0.58 0.55 0.54 0.55 0.54 0.51 0.46 0.42 0.37 0.35 0.37 0.45 0.55 0.67 0.78 0.87 0.93 0.98 1.03 1.12 1.12